2001 SJ276 

Epoch 2001 Sep. 28.0 TT = JDT 2452180.5                 Nakano

M  18.43086              (2000.0)            P               Q

n   0.47104089     Peri.  123.63332     +0.86924807     +0.40522438

a   1.6359259      Node   215.03066     -0.41578334     +0.90912942

e   0.2316757      Incl.   29.56189     +0.26745468     +0.09631672

P   2.09           H   18.4           G   0.15           U   *

Residuals in seconds of arc 

010927 704  0.4+  0.2-    010928 046  0.4+  0.7+    011011 587  0.4-  1.2-  

010927 704  0.7+  0.4-    010928 046  0.3-  0.5-    011011 587  0.3+  1.0-  

010927 704  1.1+  0.1+    010928 046  0.7-  0.0     011012 300  0.3+  0.2+  

010927 704  0.9+  0.2-    010928 046  0.5-  0.2-    011012 300 (1.7+  2.4+) 

010928 557  0.2+  0.2+    010928 046  0.7-  1.0-    011012 300 (0.0   3.6+) 

010928 557  0.1-  0.0     011002 540  0.6-  0.4+    011012 300 (0.8-  2.3+) 

010928 557  0.0   0.8+    011002 540  0.4-  0.9+    011012 300  1.0+  1.3+  

010928 711  0.0   0.2+    011005 118  0.4-  0.0     011012 360  0.3-  0.1-  

010928 711  0.2+  0.2-    011005 118  0.4+  0.2-    011012 360  0.1-  0.1-  

010928 711  0.2+  0.5-    011005 118  0.4+  0.2+    011012 360  0.0   0.1+  

010928 658  0.2+  0.1+    011008 649  0.1-  0.1+    011013 215  0.2+  0.6+  

010928 658  0.1+  0.2+    011008 649  0.3+  0.2+    011013 215  0.1+  0.3+  

010928 658  0.0   0.1-    011008 649  0.1+  0.5-    011013 215  0.1+  0.2+  

010928 704  0.3-  0.4+    011008 649  0.1+  0.0     011014 402  0.2+  0.4+  

010928 704  0.0   0.9+    011011 151  0.5-  0.1-    011014 402  0.2+  0.3+  

010928 704  1.3-  0.4-    011011 151  0.3-  0.3-    011014 402  0.1+  0.8+  

010928 704  0.1+  0.1+    011011 151  0.3-  0.2-    011014 198  0.6-  1.2+  

010928 704  0.1-  1.2+    011011 151 (1.8+  2.7+)   011014 198  0.1+  1.1-  

010928 333  0.0   0.9-    011011 151  0.3-  0.3-    011014 198  0.2+  1.4-  

010928 333  0.2+  1.0-    011011 151  0.1-  0.1-                            

 

NAKANO

         **** Don't distribute anyone except personal use only ****

                (C) Copyright 2001 OAA/ComputingSection

write mail from CFAD0::NAKANO on 2001-10-18 05:00:31(JST).

 

2001 SJ276 

Epoch 2001 Sep. 28.0 TT = JDT 2452180.5                 Nakano

M  18.41710              (2000.0)            P               Q

n   0.47088451     Peri.  123.64894     +0.86931926     +0.40502990

a   1.6362881      Node   215.02930     -0.41555160     +0.90923199

e   0.2317840      Incl.   29.56983     +0.26758342     +0.09616632

P   2.09           H   18.4           G   0.15           U   *

  

NAKANO

         **** Don't distribute anyone except personal use only ****

                (C) Copyright 2001 OAA/ComputingSection

write mail from CFAD0::NAKANO on 2001-10-14 22:10:43(JST).

 

2001 SJ276 

Epoch 2001 Sep. 28.0 TT = JDT 2452180.5                 Nakano

M  18.36875              (2000.0)            P               Q

n   0.47032704     Peri.  123.70288     +0.86956461     +0.40435783

a   1.6375808      Node   215.02464     -0.41475027     +0.90958600

e   0.2321776      Incl.   29.59738     +0.26802910     +0.09564552

P   2.10           H   18.4           G   0.15           U   *

 

NAKANO

         **** Don't distribute anyone except personal use only ****

                (C) Copyright 2001 OAA/ComputingSection

write mail from CFAD0::NAKANO on 2001-10-13 04:28:55(JST).

  



–ß‚è‚Ü‚·B